Date String (YYYY-MM-DD hh:mm:ss) UTC,Instrument flags,Ambient pressure (hPa),Sample flow (lpm),Bypass flow (lpm),Sample temperature (°C),Ambient temperature (°C),ASC tube jacket temperature (°C),LED temperature (°C),Box temperature (°C),Sample RH (%),Span deviation,Mass concentration (μg/m³),Mass concentration (μg/m³),Mass concentration (μg/m³)
DateTimeUTC,F1_M11,P_M11,Q1_M11,Q2_M11,T1_M11,T2_M11,T3_M11,T4_M11,T5_M11,U1_M11,ZSPAN_M11,X2_M11,X0_M11,X1_M11
2022-01-30 20:00:00,,0823.8,5.02,0.00,27.1,26.3,00.0,35.9,29.0,05.6,0000.0,0004.55,0009.73,0004.04
2022-01-30 20:01:00,,0823.8,4.99,0.00,27.1,26.3,00.0,35.9,28.9,05.6,0000.0,0004.48,0009.75,0003.96
2022-01-30 20:02:00,,0823.8,5.00,0.00,27.1,26.3,00.0,35.9,28.9,05.1,0000.0,0004.38,0010.31,0003.89
2022-01-30 20:03:00,,0823.8,5.02,0.00,27.1,26.3,00.0,36.0,28.9,05.1,0000.0,0004.25,0010.58,0003.79
2022-01-30 20:04:00,,0823.8,5.00,0.00,27.1,26.3,00.0,36.0,29.0,05.0,0000.0,0004.13,0010.40,0003.71
2022-01-30 20:05:00,,0823.7,5.00,0.00,27.1,26.3,00.0,36.0,29.0,05.0,0000.0,0004.04,0010.28,0003.62
2022-01-30 20:06:00,,0823.7,5.00,0.00,27.1,26.3,00.0,36.0,29.0,05.2,0000.0,0003.93,0009.83,0003.55
2022-01-30 20:07:00,,0823.7,4.98,0.00,27.1,26.4,00.0,36.0,29.0,04.8,0000.0,0003.82,0009.47,0003.47
2022-01-30 20:08:00,,0823.7,5.00,0.00,27.1,26.4,00.0,36.0,29.0,05.0,0000.0,0003.70,0009.11,0003.40
2022-01-30 20:09:00,,0823.7,5.01,0.00,27.2,26.4,00.0,36.0,29.0,04.8,0000.0,0003.59,0008.13,0003.32
2022-01-30 20:10:00,,0823.7,4.98,0.00,27.2,26.4,00.0,36.0,29.0,04.8,0000.0,0003.47,0007.86,0003.25
2022-01-30 20:11:00,,0823.7,5.02,0.00,27.2,26.4,00.0,36.1,29.1,05.1,0000.0,0003.43,0008.43,0003.23
2022-01-30 20:12:00,,0823.7,4.98,0.00,27.2,26.5,00.0,36.1,29.1,05.3,0000.0,0003.37,0008.31,0003.20
2022-01-30 20:13:00,,0823.7,5.00,0.00,27.2,26.5,00.0,36.1,29.1,04.9,0000.0,0003.37,0007.38,0003.19
2022-01-30 20:14:00,,0823.6,5.01,0.00,27.2,26.5,00.0,36.1,29.1,05.1,0000.0,0003.36,0006.83,0003.18
2022-01-30 20:15:00,,0823.6,4.99,0.00,27.2,26.5,00.0,36.1,29.1,05.1,0000.0,0003.35,0006.84,0003.16
2022-01-30 20:16:00,,0823.7,5.01,0.00,27.3,26.5,00.0,36.1,29.1,05.5,0000.0,0003.36,0006.82,0003.17
2022-01-30 20:17:00,,0823.6,4.99,0.00,27.3,26.5,00.0,36.1,29.2,05.6,0000.0,0003.38,0006.91,0003.18
2022-01-30 20:18:00,,0823.7,5.01,0.00,27.3,26.6,00.0,36.2,29.2,05.4,0000.0,0003.43,0007.26,0003.20
2022-01-30 20:19:00,,0823.7,4.98,0.00,27.3,26.6,00.0,36.2,29.2,05.4,0000.0,0003.48,0007.73,0003.22
2022-01-30 20:20:00,,0823.6,5.02,0.00,27.4,26.6,00.0,36.2,29.2,05.3,0000.0,0003.52,0007.80,0003.25
2022-01-30 20:21:00,,0823.7,4.98,0.00,27.4,26.7,00.0,36.2,29.3,05.6,0000.0,0003.56,0007.62,0003.29
2022-01-30 20:22:00,,0823.6,5.01,0.00,27.4,26.7,00.0,36.2,29.3,05.5,0000.0,0003.60,0006.98,0003.31
2022-01-30 20:23:00,,0823.7,4.99,0.00,27.4,26.7,00.0,36.2,29.3,05.3,0000.0,0003.60,0006.71,0003.32
2022-01-30 20:24:00,,0823.7,5.02,0.00,27.4,26.7,00.0,36.3,29.3,05.0,0000.0,0003.58,0006.64,0003.31
2022-01-30 20:25:00,,0823.7,5.00,0.00,27.4,26.7,00.0,36.3,29.3,04.7,0000.0,0003.60,0006.69,0003.31
2022-01-30 20:26:00,,0823.7,5.00,0.00,27.5,26.7,00.0,36.3,29.3,04.9,0000.0,0003.64,0006.89,0003.33
2022-01-30 20:27:00,,0823.7,5.00,0.00,27.5,26.8,00.0,36.3,29.3,04.9,0000.0,0003.64,0006.97,0003.33
2022-01-30 20:28:00,,0823.7,5.00,0.00,27.5,26.8,00.0,36.3,29.4,05.1,0000.0,0003.64,0006.96,0003.33
2022-01-30 20:29:00,,0823.6,5.01,0.00,27.5,26.8,00.0,36.3,29.4,04.8,0000.0,0003.59,0006.66,0003.31
2022-01-30 20:30:00,,0823.7,5.00,0.00,27.6,26.8,00.0,36.4,29.4,04.9,0000.0,0003.55,0006.03,0003.29
2022-01-30 20:31:00,,0823.6,5.00,0.00,27.6,26.9,00.0,36.4,29.4,04.9,0000.0,0003.50,0005.71,0003.27
2022-01-30 20:32:00,,0823.6,5.00,0.00,27.6,26.9,00.0,36.4,29.5,04.5,0000.0,0003.43,0005.57,0003.20
2022-01-30 20:33:00,,0823.6,4.99,0.00,27.6,26.9,00.0,36.4,29.5,04.3,0000.0,0003.34,0005.06,0003.13
2022-01-30 20:34:00,,0823.6,5.02,0.00,27.6,26.9,00.0,36.4,29.5,03.9,0000.0,0003.27,0004.86,0003.02
2022-01-30 20:35:00,,0823.6,4.99,0.00,27.7,27.0,00.0,36.5,29.5,03.7,0000.0,0003.19,0004.68,0002.88
2022-01-30 20:36:00,,0823.6,4.99,0.00,27.7,27.0,00.0,36.5,29.5,03.8,0000.0,0003.11,0004.51,0002.77
2022-01-30 20:37:00,,0823.7,5.02,0.00,27.7,27.0,00.0,36.5,29.5,03.9,0000.0,0002.91,0004.10,0002.65
2022-01-30 20:38:00,,0823.6,5.00,0.00,27.7,27.0,00.0,36.5,29.6,04.0,0000.0,0002.80,0004.42,0002.53
2022-01-30 20:39:00,,0823.6,5.00,0.00,27.7,27.1,00.0,36.6,29.6,04.1,0000.0,0002.65,0004.55,0002.40
2022-01-30 20:40:00,,0823.6,5.00,0.00,27.7,27.1,00.0,36.6,29.6,03.9,0000.0,0002.53,0004.37,0002.30
2022-01-30 20:41:00,,0823.5,4.99,0.00,27.7,27.1,00.0,36.6,29.6,03.9,0000.0,0002.42,0004.28,0002.16
2022-01-30 20:42:00,,0823.4,5.01,0.00,27.8,27.1,00.0,36.6,29.7,03.9,0000.0,0002.32,0004.22,0002.04
2022-01-30 20:43:00,,0823.4,4.99,0.00,27.8,27.1,00.0,36.6,29.7,03.9,0000.0,0002.27,0004.20,0001.98
2022-01-30 20:44:00,,0823.3,4.99,0.00,27.8,27.1,00.0,36.7,29.7,04.0,0000.0,0002.27,0004.29,0001.95
2022-01-30 20:45:00,,0823.3,5.02,0.00,27.8,27.1,00.0,36.7,29.7,03.9,0000.0,0002.25,0004.27,0001.94
2022-01-30 20:46:00,,0823.3,4.98,0.00,27.8,27.1,00.0,36.7,29.7,03.8,0000.0,0002.27,0004.29,0001.96
2022-01-30 20:47:00,,0823.3,5.00,0.00,27.8,27.1,00.0,36.7,29.7,03.8,0000.0,0002.27,0004.28,0001.97
2022-01-30 20:48:00,,0823.3,5.00,0.00,27.8,27.2,00.0,36.7,29.7,04.0,0000.0,0002.28,0004.28,0001.98
2022-01-30 20:49:00,,0823.5,4.99,0.00,27.9,27.2,00.0,36.7,29.7,04.2,0000.0,0002.31,0003.93,0001.99
2022-01-30 20:50:00,,0823.3,5.00,0.00,27.9,27.2,00.0,36.8,29.8,04.2,0000.0,0002.32,0003.45,0002.01
2022-01-30 20:51:00,,0823.4,5.01,0.00,27.9,27.2,00.0,36.8,29.8,04.1,0000.0,0002.38,0003.54,0002.04
2022-01-30 20:52:00,,0823.4,4.99,0.00,27.9,27.2,00.0,36.8,29.8,04.1,0000.0,0002.37,0003.44,0002.07
2022-01-30 20:53:00,,0823.4,5.02,0.00,27.9,27.2,00.0,36.8,29.8,04.2,0000.0,0002.35,0003.32,0002.07
2022-01-30 20:54:00,,0823.4,4.99,0.00,28.0,27.2,00.0,36.8,29.8,04.4,0000.0,0002.32,0003.67,0002.08
2022-01-30 20:55:00,,0823.4,5.00,0.00,28.0,27.3,00.0,36.8,29.8,04.7,0000.0,0002.34,0004.23,0002.10
2022-01-30 20:56:00,,0823.4,5.01,0.00,28.0,27.3,00.0,36.9,29.9,04.8,0000.0,0002.36,0004.26,0002.10
2022-01-30 20:57:00,,0823.3,4.99,0.00,28.0,27.3,00.0,36.9,29.9,04.9,0000.0,0002.36,0004.26,0002.11
2022-01-30 20:58:00,,0823.4,5.02,0.00,28.0,27.3,00.0,36.9,29.9,04.5,0000.0,0002.38,0004.27,0002.13
2022-01-30 20:59:00,,0823.3,4.97,0.00,28.0,27.4,00.0,36.9,29.9,04.2,0000.0,0002.43,0004.78,0002.13
